Location: Washington
(38.8950°N, 77.0370°W)
Time: 09:59:11
(UTC-05:00)

Daily predictions for brighter satellites

Satellite Brightness Start Highest point End
(mag) Time Altitude Azimuth Time Altitude Azimuth Time Altitude Azimuth
Atlas Centaur 2 4.2 17:35:49 10° WSW 17:40:04 21° SSW 17:43:40 10° SSE
Cosmos 2219 Rocket 2.3 17:34:37 10° S 17:40:10 62° ESE 17:45:43 10° NNE
Cosmos 371 Rocket 3.5 17:36:16 10° S 17:40:55 51° ESE 17:45:35 10° NNE
YAOGAN 1 2.5 17:39:18 10° SSE 17:43:37 79° ENE 17:47:58 10° N
Molniya-1 4.3 17:41:18 10° SW 17:43:47 58° NW 17:48:06 10° NNE
COSMO-SKYMED 1 3.2 17:40:08 10° NNE 17:44:08 35° E 17:48:06 10° SSE
CZ-4 R/B 4.5 17:41:19 10° SSE 17:45:25 62° ENE 17:49:31 10° N
Cosmos 990 Rocket 4.3 17:40:47 10° NNW 17:46:03 77° WSW 17:51:17 10° SSE
Cosmos 2058 4.1 17:43:54 10° SE 17:47:08 23° E 17:50:22 10° NE
SPOT 3 Rocket 3.6 17:42:01 10° SSE 17:47:10 87° ENE 17:52:22 10° NNW
Thor Agena Rocket 3.6 17:42:45 10° NNE 17:48:01 86° ESE 17:53:12 10° SSW
Cosmos 1125 Rocket 3.9 17:43:20 10° N 17:48:13 39° ENE 17:53:03 10° SE
Cosmos 2278 Rocket 2.8 17:43:21 10° N 17:48:34 36° ENE 17:53:44 10° SE
SMAP 3.4 17:46:27 10° S 17:51:06 75° WSW 17:55:46 10° NNW
BREEZE-M DEB (TANK) 3.7 17:47:08 10° WNW 17:51:22 63° SW 17:57:29 10° SE
USA 116 4.1 17:49:53 10° N 17:53:00 50° WNW 17:55:59 10° SSW
Cosmos 2228 Rocket 3.1 17:49:08 10° N 17:53:34 89° WSW 17:58:00 10° S
Elektron 3 4.4 17:51:47 10° NW 17:56:51 82° SW 17:59:52 10° SSE
Cosmos 1908 4.2 17:54:40 10° NNW 17:58:27 52° W 18:02:14 10° S
Cosmos 1626 4.0 17:57:19 10° ESE 17:58:44 12° E 17:59:17 12° ENE
Cosmos 841 Rocket 4.0 17:55:06 10° SSW 18:00:19 65° WNW 18:05:35 10° NNE
Cosmos 1844 3.7 17:54:34 10° NNW 18:00:21 77° ENE 18:06:09 10° SSE
Cosmos 44 Rocket 3.4 17:55:38 10° SSW 18:00:46 88° WNW 18:05:51 10° NNE
Cosmos 1340 Rocket 3.9 17:58:05 10° SSE 18:01:19 24° E 18:04:33 10° NE
Cosmos 1674 4.0 17:57:43 10° SSW 18:01:21 43° W 18:05:03 10° N
CENTAUR R/B 3.4 17:57:13 10° WSW 18:03:03 47° NW 18:09:40 10° NNE
IDEFIX/ARIANE 42P 3.7 18:00:26 10° S 18:05:26 48° W 18:10:30 10° NNW
SL-14 R/B 3.4 18:03:47 10° S 18:07:36 54° E 18:11:28 10° NNE
Lacrosse 5 4.1 18:07:05 10° NW 18:09:24 13° NNW 18:11:42 10° N
COSMOS 2428 4.0 18:06:18 10° SW 18:11:39 40° WNW 18:17:01 10° N
Cosmos 2237 Rocket 2.2 18:06:42 10° SSW 18:12:16 69° ESE 18:17:53 10° NNE
Cosmos 1484 Rocket 2.8 18:08:23 10° SSE 18:12:17 89° E 18:16:17 10° NNW
SKYMED 3 4.5 18:09:53 10° NNE 18:14:15 79° ESE 18:18:35 10° S
CZ-2C R/B 4.1 18:09:59 10° SSW 18:14:38 38° W 18:19:11 10° NNW
Cosmos 1726 2.0 18:12:53 10° N 18:16:40 73° E 18:20:25 10° SSE
Milstar 3 4.2 18:11:32 10° WSW 18:17:28 31° S 18:23:35 10° SE
SL-16 R/B 2.9 18:12:53 10° SSE 18:17:47 31° ESE 18:21:40 15° NE
Cosmos 2151 2.8 18:13:50 10° S 18:18:02 76° E 18:22:14 10° N
Cosmos 1300 2.6 18:16:35 10° N 18:20:26 79° E 18:24:14 10° S
Cosmos 304 Rocket 4.2 18:20:08 10° S 18:24:37 40° ESE 18:28:10 15° NE
Cosmos 2297 4.2 18:23:31 10° N 18:28:45 36° ENE 18:33:59 10° SE
Aureole 2 Rocket 2.5 18:26:49 10° S 18:30:22 65° ESE 18:33:24 16° NNE
SKYMED 2 4.0 18:27:58 10° N 18:32:16 64° WNW 18:36:33 10° SSW
Cosmos 1151 Rocket 3.4 18:29:18 10° NNW 18:33:33 67° W 18:37:48 10° S
Cosmos 1805 Rocket 3.8 18:29:34 10° SSE 18:33:51 49° E 18:38:09 10° NNE
BREEZE M DEB (TANK) 2.3 18:35:05 10° NW 18:37:01 30° N 18:37:01 30° N
Abrixas 2.3 18:36:14 10° WSW 18:39:09 85° NNW 18:39:46 52° NE
Lacrosse 5 rocket 1.5 18:35:38 10° NNW 18:39:17 43° NE 18:40:18 35° E
Cosmos 1844 Rocket 4.5 18:38:21 10° NW 18:43:23 34° WSW 18:48:23 10° SSW
Meteor 1-28 Rocket 3.7 18:41:22 10° N 18:45:03 60° WNW 18:48:42 10° SSW
Meteor 1-11 4.4 18:39:44 10° SSW 18:45:24 79° W 18:51:11 10° N
Cosmos 372 Rocket 4.1 18:50:29 10° NNW 18:55:33 72° WSW 19:00:38 10° S
Sich 1 3.1 18:51:22 10° S 18:55:42 55° E 18:57:08 37° NE
Cosmos 1633 Rocket 3.1 18:55:55 10° S 19:00:13 54° E 19:00:37 52° ENE
FengYun 1-2 T 4.2 18:55:56 10° SSE 19:01:23 58° ENE 19:06:48 10° N
FENGYUN 3A 3.6 18:59:52 10° SSE 19:05:06 58° ENE 19:10:22 10° N
SJ-6B 3.1 19:03:25 10° S 19:07:27 69° W 19:11:34 10° NNW
USA 215 3.2 19:01:55 14° SE 19:07:39 89° SW 19:14:14 10° NW
ALOS 2.2 19:03:31 10° SSE 19:08:06 63° ENE 19:12:44 10° N
OTV 4 2.3 19:07:27 10° W 19:09:45 26° SSW 19:09:45 26° SSW
Cosmos 2333 Rocket 4.0 19:10:08 10° WSW 19:14:58 29° WNW 19:19:50 10° N
Resurs 01 Rocket 2.0 19:17:34 48° N 19:17:34 48° N 19:20:52 10° N
Cosmos 1461 2.9 19:13:56 10° SW 19:18:09 75° WNW 19:18:18 73° NW
Cosmos 1703 4.3 19:15:50 10° SSW 19:19:33 43° W 19:21:52 20° NNW
Cosmos 1707 Rocket 4.0 19:19:21 10° NNW 19:23:37 61° W 19:27:53 10° S
Cosmos 2219 Rocket 4.5 19:20:35 10° W 19:24:34 19° NW 19:28:34 10° N
SL-19 R/B 4.5 19:22:24 10° S 19:28:25 75° WSW 19:34:06 10° NNW
Cosmos 2278 Rocket 4.0 19:27:36 10° NW 19:32:30 31° WSW 19:37:23 10° SSW
Cosmos 1666 Rocket 4.3 19:28:29 10° SSW 19:32:41 50° W 19:34:06 35° NNW
Cosmos 1626 3.6 19:30:15 10° SSW 19:33:43 36° WNW 19:34:02 36° WNW
Spot 2 Rocket 3.6 19:31:34 10° S 19:36:37 75° WSW 19:41:40 10° NNW
USA 229 DEB 3.5 19:42:28 10° SSW 19:49:18 82° ESE 19:49:29 81° E
USA 229 3.5 19:42:34 10° SSW 19:49:24 81° ESE 19:49:32 81° ESE
Aureole 1 Rocket 4.1 19:56:25 10° SSW 20:01:10 61° W 20:01:10 61° W
SL-16 R/B 3.6 19:56:38 10° SW 20:01:46 35° WNW 20:03:37 28° NNW
Lacrosse 5 rocket 4.3 20:15:23 10° WNW 20:16:06 13° W 20:16:06 13° W
